📊 Raw Sensor Data

Showing records 34676 to 34700 of 84,863 total

ID Distance (ft) Battery V Battery A Int Temp (°F) Int Humid (%) Ext Temp (°F) Solar V RSSI SNR Time Stamp
50200 15.5 3.72 0 82 42 80 5.10 -66 8 08/25/2025 11:00 AM
50199 15.4 4.05 0 81 42 79 5.10 -66 8 08/25/2025 10:45 AM
50198 15.5 4.05 0 80 42 77 5.10 -66 8 08/25/2025 10:30 AM
50197 15.5 3.72 0 78 42 80 5.10 -65 8 08/25/2025 10:15 AM
50196 15.5 3.72 0 77 42 79 5.10 -66 8 08/25/2025 10:00 AM
50195 15.5 3.72 0 75 42 76 5.10 -65 8 08/25/2025 09:45 AM
50194 15.5 3.72 0 74 42 74 5.10 -65 8 08/25/2025 09:30 AM
50193 15.6 3.78 0 73 42 75 5.10 -65 7 08/25/2025 09:15 AM
50192 15.6 3.72 0 71 42 76 5.10 -66 8 08/25/2025 09:00 AM
50191 15.6 3.72 0 70 42 74 5.10 -66 8 08/25/2025 08:45 AM
50190 15.5 4.06 0 67 42 71 5.10 -65 7 08/25/2025 08:15 AM
50189 15.5 3.72 0 66 42 72 5.10 -70 8 08/25/2025 08:00 AM
50188 15.4 3.92 33 64 42 70 4.50 -72 8 08/25/2025 07:45 AM
50187 15.4 3.75 0 63 43 69 4.50 -70 9 08/25/2025 07:30 AM
50186 15.4 3.81 9 61 43 66 4.50 -71 9 08/25/2025 07:15 AM
50185 15.3 3.56 0 59 43 64 4.50 -71 8 08/25/2025 07:00 AM
50184 15.3 3.53 -5 58 44 60 4.60 -71 9 08/25/2025 06:45 AM
50183 15.2 3.52 -7 58 44 59 2.80 -71 8 08/25/2025 06:30 AM
50182 15.3 3.71 -5 58 44 59 1.30 -72 8 08/25/2025 06:15 AM
50181 15.4 3.71 -5 58 44 59 0.00 -72 9 08/25/2025 06:00 AM
50180 15.4 3.72 -5 58 44 59 0.00 -71 8 08/25/2025 05:45 AM
50179 15.3 3.72 -5 58 44 59 0.00 -71 8 08/25/2025 05:30 AM
50178 15.4 3.72 -5 58 44 59 0.10 -71 9 08/25/2025 05:15 AM
50177 15.3 3.72 -5 58 44 59 0.00 -71 8 08/25/2025 05:00 AM
50176 15.3 3.72 -5 59 44 59 0.00 -71 8 08/25/2025 04:45 AM